TimeCDT,TemperatureF,Dew PointF,Humidity,Sea Level PressureIn,VisibilityMPH,Wind Direction,Wind SpeedMPH,Gust SpeedMPH,PrecipitationIn,Events,Conditions,WindDirDegrees,DateUTC
12:13 AM,33.8,30.2,87,30.26,10.0,Calm,Calm,-,N/A,,Clear,0,2013-09-17 05:13:00
12:33 AM,32.0,30.2,93,30.26,10.0,Calm,Calm,-,N/A,,Clear,0,2013-09-17 05:33:00
12:53 AM,33.8,30.2,87,30.26,10.0,Calm,Calm,-,N/A,,Clear,0,2013-09-17 05:53:00
1:13 AM,32.0,30.2,93,30.26,10.0,Calm,Calm,-,N/A,,Clear,0,2013-09-17 06:13:00
1:33 AM,32.0,28.4,87,30.26,10.0,Calm,Calm,-,N/A,,Clear,0,2013-09-17 06:33:00
1:53 AM,32.0,30.2,93,30.25,10.0,Calm,Calm,-,N/A,,Clear,0,2013-09-17 06:53:00
2:13 AM,30.2,28.4,93,30.25,10.0,Calm,Calm,-,N/A,,Clear,0,2013-09-17 07:13:00
2:33 AM,32.0,30.2,93,30.25,10.0,Calm,Calm,-,N/A,,Clear,0,2013-09-17 07:33:00
2:53 AM,30.2,26.6,86,30.25,10.0,Calm,Calm,-,N/A,,Clear,0,2013-09-17 07:53:00
3:13 AM,30.2,28.4,93,30.25,10.0,Calm,Calm,-,N/A,,Clear,0,2013-09-17 08:13:00
3:33 AM,30.2,28.4,93,30.25,10.0,Calm,Calm,-,N/A,,Clear,0,2013-09-17 08:33:00
3:53 AM,30.2,26.6,86,30.24,10.0,Calm,Calm,-,N/A,,Clear,0,2013-09-17 08:53:00
4:13 AM,28.4,26.6,93,30.24,10.0,Calm,Calm,-,N/A,,Clear,0,2013-09-17 09:13:00
4:33 AM,28.4,26.6,93,30.24,10.0,Calm,Calm,-,N/A,,Clear,0,2013-09-17 09:33:00
4:53 AM,28.4,26.6,93,30.24,10.0,Calm,Calm,-,N/A,,Clear,0,2013-09-17 09:53:00
5:13 AM,28.4,26.6,93,30.23,10.0,Calm,Calm,-,N/A,,Clear,0,2013-09-17 10:13:00
5:33 AM,28.4,26.6,93,30.23,10.0,Calm,Calm,-,N/A,,Clear,0,2013-09-17 10:33:00
5:53 AM,28.4,26.6,93,30.23,10.0,Calm,Calm,-,N/A,,Clear,0,2013-09-17 10:53:00
6:13 AM,28.4,26.6,93,30.23,10.0,Calm,Calm,-,N/A,,Clear,0,2013-09-17 11:13:00
6:33 AM,28.4,26.6,93,30.23,10.0,Calm,Calm,-,N/A,,Clear,0,2013-09-17 11:33:00
6:53 AM,28.4,26.6,93,30.23,10.0,Calm,Calm,-,N/A,,Clear,0,2013-09-17 11:53:00
7:13 AM,28.4,26.6,93,30.23,10.0,Calm,Calm,-,N/A,,Clear,0,2013-09-17 12:13:00
7:33 AM,30.2,26.6,86,30.23,10.0,Calm,Calm,-,N/A,,Clear,0,2013-09-17 12:33:00
7:53 AM,30.2,28.4,93,30.22,10.0,Calm,Calm,-,N/A,,Clear,0,2013-09-17 12:53:00
8:13 AM,33.8,30.2,87,30.22,10.0,Calm,Calm,-,N/A,,Clear,0,2013-09-17 13:13:00
8:33 AM,39.2,35.6,87,30.21,10.0,Calm,Calm,-,N/A,,Clear,0,2013-09-17 13:33:00
8:53 AM,44.6,39.2,81,30.20,10.0,Calm,Calm,-,N/A,,Clear,0,2013-09-17 13:53:00
9:13 AM,48.2,41.0,76,30.20,10.0,South,3.5,-,N/A,,Clear,190,2013-09-17 14:13:00
9:33 AM,51.8,41.0,67,30.20,10.0,South,4.6,-,N/A,,Clear,190,2013-09-17 14:33:00
9:53 AM,51.8,42.8,71,30.19,10.0,SSW,5.8,-,N/A,,Clear,210,2013-09-17 14:53:00
10:13 AM,53.6,41.0,62,30.19,10.0,South,5.8,-,N/A,,Clear,180,2013-09-17 15:13:00
10:33 AM,55.4,42.8,63,30.18,10.0,SSW,5.8,-,N/A,,Clear,200,2013-09-17 15:33:00
10:53 AM,55.4,42.8,63,30.18,10.0,SSE,8.1,-,N/A,,Clear,160,2013-09-17 15:53:00
11:14 AM,55.4,42.8,63,30.17,10.0,South,6.9,-,N/A,,Unknown,180,2013-09-17 16:14:00
11:33 AM,57.2,41.0,55,30.17,10.0,South,11.5,-,N/A,,Clear,190,2013-09-17 16:33:00
11:53 AM,59.0,42.8,55,30.16,10.0,South,9.2,-,N/A,,Clear,170,2013-09-17 16:53:00
12:13 PM,59.0,42.8,55,30.15,10.0,South,9.2,-,N/A,,Clear,180,2013-09-17 17:13:00
12:33 PM,59.0,42.8,55,30.13,10.0,South,10.4,18.4,N/A,,Clear,180,2013-09-17 17:33:00
12:54 PM,60.8,42.8,52,30.12,10.0,South,9.2,-,N/A,,Clear,180,2013-09-17 17:54:00
1:13 PM,60.8,42.8,52,30.11,10.0,South,11.5,16.1,N/A,,Clear,170,2013-09-17 18:13:00
1:33 PM,60.8,42.8,52,30.10,10.0,SSE,12.7,-,N/A,,Clear,160,2013-09-17 18:33:00
1:53 PM,60.8,44.6,55,30.09,10.0,South,9.2,-,N/A,,Clear,180,2013-09-17 18:53:00
2:13 PM,60.8,42.8,52,30.09,10.0,SE,10.4,16.1,N/A,,Clear,140,2013-09-17 19:13:00
2:33 PM,62.6,44.6,52,30.08,10.0,SSE,8.1,-,N/A,,Clear,160,2013-09-17 19:33:00
2:53 PM,60.8,44.6,55,30.07,10.0,SE,6.9,-,N/A,,Clear,130,2013-09-17 19:53:00
3:13 PM,60.8,44.6,55,30.07,10.0,ESE,5.8,-,N/A,,Clear,120,2013-09-17 20:13:00
3:33 PM,60.8,44.6,55,30.05,10.0,SSE,4.6,-,N/A,,Clear,160,2013-09-17 20:33:00
3:53 PM,60.8,44.6,55,30.04,10.0,ESE,4.6,-,N/A,,Clear,110,2013-09-17 20:53:00
4:13 PM,60.8,44.6,55,30.04,10.0,East,3.5,-,N/A,,Clear,90,2013-09-17 21:13:00
4:33 PM,60.8,44.6,55,30.03,10.0,SE,4.6,-,N/A,,Clear,130,2013-09-17 21:33:00
4:53 PM,60.8,44.6,55,30.02,10.0,SE,3.5,-,N/A,,Clear,140,2013-09-17 21:53:00
5:13 PM,60.8,44.6,55,30.02,10.0,SSE,3.5,-,N/A,,Clear,150,2013-09-17 22:13:00
5:33 PM,60.8,44.6,55,30.01,10.0,Calm,Calm,-,N/A,,Clear,0,2013-09-17 22:33:00
5:53 PM,60.8,42.8,52,30.01,10.0,East,3.5,-,N/A,,Clear,100,2013-09-17 22:53:00
6:13 PM,59.0,44.6,59,30.01,10.0,East,3.5,-,N/A,,Clear,80,2013-09-17 23:13:00
6:33 PM,57.2,44.6,63,30.01,10.0,Calm,Calm,-,N/A,,Clear,0,2013-09-17 23:33:00
6:53 PM,55.4,44.6,67,30.00,10.0,NE,3.5,-,N/A,,Clear,40,2013-09-17 23:53:00
7:13 PM,53.6,44.6,72,30.00,10.0,NE,4.6,-,N/A,,Clear,40,2013-09-18 00:13:00
7:33 PM,51.8,46.4,82,29.99,10.0,NNE,4.6,-,N/A,,Clear,30,2013-09-18 00:33:00
7:53 PM,51.8,46.4,82,29.99,10.0,North,3.5,-,N/A,,Clear,10,2013-09-18 00:53:00
8:13 PM,51.8,46.4,82,29.99,10.0,North,3.5,-,N/A,,Clear,350,2013-09-18 01:13:00
8:33 PM,50.0,44.6,82,29.99,10.0,NNE,3.5,-,N/A,,Clear,20,2013-09-18 01:33:00
8:53 PM,48.2,44.6,87,29.99,10.0,Calm,Calm,-,N/A,,Clear,0,2013-09-18 01:53:00
9:13 PM,46.4,42.8,87,29.99,10.0,Calm,Calm,-,N/A,,Clear,0,2013-09-18 02:13:00
9:33 PM,46.4,44.6,93,29.99,10.0,North,3.5,-,N/A,,Clear,10,2013-09-18 02:33:00
9:53 PM,46.4,42.8,87,29.98,10.0,Calm,Calm,-,N/A,,Clear,0,2013-09-18 02:53:00
10:13 PM,46.4,42.8,87,29.98,10.0,Calm,Calm,-,N/A,,Clear,0,2013-09-18 03:13:00
10:33 PM,46.4,42.8,87,29.98,10.0,South,5.8,-,N/A,,Clear,170,2013-09-18 03:33:00
10:53 PM,48.2,44.6,87,29.98,10.0,Calm,Calm,-,N/A,,Clear,0,2013-09-18 03:53:00
11:13 PM,51.8,44.6,76,29.97,10.0,Calm,Calm,-,N/A,,Clear,0,2013-09-18 04:13:00
11:33 PM,51.8,44.6,76,29.97,10.0,Calm,Calm,-,N/A,,Clear,0,2013-09-18 04:33:00
11:53 PM,51.8,46.4,82,29.97,10.0,Calm,Calm,-,N/A,,Scattered Clouds,0,2013-09-18 04:53:00